Regional Weather Roundup
Issued by NWS

Home | Current Version | Previous Version | Graphics & Text | Print | Product List | Glossary On
Versions: 1 2 3 4 5 6 7 8 9 10 11 12 13 14 15 16 17 18 19 20 21 22 23 24 25 26 27 28 29 30 31 32 33 34 35 36 37 38 39 40 41 42 43 44 45 46 47 48 49 50
000
ASUS43 KMPX 301410
RWRMN
WEATHER ROUNDUP FOR MINNESOTA
NATIONAL WEATHER SERVICE TWIN CITIES/CHANHASSEN MN
900 AM CDT MON MAY 30 2016


NOTE: "FAIR" INDICATES FEW OR NO CLOUDS BELOW 12,000 FEET WITH NO
SIGNIFICANT WEATHER AND/OR OBSTRUCTIONS TO VISIBILITY. N/A MEANS
CURRENT SKY AND/OR WEATHER CONDITIONS ARE NOT AVAILABLE.

MNZ060>063-068>070-301500-
   Twin Cities Metro

CITY           SKY/WX    TMP DP  RH WIND       PRES   REMARKS
TWIN CITIES    CLOUDY    70  58  65 S5        30.02S
ST PAUL        MOSUNNY   70  61  73 CALM      30.02S
CRYSTAL        PTSUNNY   70  57  63 S7        29.99F
BLAINE         MOSUNNY   68  63  83 S5        30.01S
EDEN PRAIRIE   MOSUNNY   68  59  73 SW5       30.00F
SOUTH ST PAUL  CLOUDY    69  60  73 CALM      30.01F
LAKE ELMO      FAIR      64  63  94 CALM      30.03F
$$
MNZ001>005-007-008-013>017-022>024-027-028-301500-
   Northwest Minnesota

CITY           SKY/WX    TMP DP  RH WIND       PRES   REMARKS
BEMIDJI        SUNNY     64  51  60 SW3       29.96F
HALLOCK        SUNNY     64  54  68 S3        29.91F
ROSEAU         SUNNY     63  54  72 CALM      29.94S
WARROAD        SUNNY     61  55  82 E3        29.95S
THIEF RVR FALL CLOUDY    64  52  63 S6        29.95S
CROOKSTON      MOSUNNY   61  55  82 E3        29.93F
FOSSTON        MOSUNNY   63  52  67 S3        29.96F
DETROIT LAKES  SUNNY     68  54  60 SE5       29.97S
MOORHEAD       SUNNY     64  54  68 S5        29.95S
PARK RAPIDS    MOSUNNY   68  49  50 SW3       29.97F
MAHNOMEN       FAIR      67  53  59 S7        29.95S
$$
MNZ006-009>011-018-025>026-301500-
   North Central Minnesota

CITY           SKY/WX    TMP DP  RH WIND       PRES   REMARKS
BAUDETTE       SUNNY     62  53  72 CALM      29.95S
FLAG ISLAND    MOSUNNY   59  54  82 N5        29.95R
INTL FALLS     SUNNY     63  53  70 NW7       29.95F
WASKISH        SUNNY     64  55  72 SW7       29.96R
BIG FORK       SUNNY     66  54  63 SW6       29.97S
LONGVILLE      SUNNY     66  55  68 CALM      29.97S
GRAND RAPIDS   SUNNY     67  51  56 SW7       29.99F
CRANE LAKE     SUNNY     61  54  77 NW5       29.97S
ORR            SUNNY     63  52  67 CALM      29.94S
COOK           SUNNY     63  54  72 W6        29.97S
WALKER         FAIR      67  50  55 W6        29.96F
$$
MNZ012-019>021-037-301500-
   Northeast Minnesota

CITY           SKY/WX    TMP DP  RH WIND       PRES   REMARKS
DULUTH         SUNNY     69  53  56 W9        29.97F
ELY            SUNNY     63  52  67 W10       29.95F
HIBBING        SUNNY     65  52  62 VRB5      29.97S
EVELETH        SUNNY     63  54  72 W5        29.98S
DULUTH HARBOR  SUNNY     66  57  72 W7        29.97F
TWO HARBORS    SUNNY     70  57  64 W8        29.95S
SILVER BAY     SUNNY     70  54  56 W7        29.94S
GRAND MARAIS     N/A     47  44  90 SW9       29.91S
G MARAIS ARPRT MOSUNNY   61  50  67 W9G17     29.94S
$$
MNZ029>031-032-039>041-046>048-054>057-064-301500-
   West Central Minnesota

CITY           SKY/WX    TMP DP  RH WIND       PRES   REMARKS
FERGUS FALLS   SUNNY     70  54  56 S6        29.93F
WHEATON        SUNNY     75  55  50 SW7       29.96F
MORRIS         SUNNY     72  55  56 SW6       29.96F
ALEXANDRIA     SUNNY     68  52  56 SW6       30.00S
ELBOW LAKE     FAIR      69  53  57 W5        29.98F
WADENA         SUNNY     66  52  59 S3        29.97F
GLENWOOD       SUNNY     66  54  63 S3        29.99F
APPLETON       MOSUNNY   70  52  52 CALM      29.95F
BENSON         CLOUDY    70  52  52 SW6       29.98F
ORTONVILLE     SUNNY     70  54  56 E3        29.95F
MADISON        CLOUDY    66  54  63 CALM      29.95F
WILLMAR        FAIR      66  57  72 CALM      30.00F
$$
MNZ033>034-036-042>043-049>051-058-059-301500-
   Central Minnesota

CITY           SKY/WX    TMP DP  RH WIND       PRES   REMARKS
ST CLOUD       MOSUNNY   67  55  65 S7        30.00S
SAUK CENTRE    FAIR      67  55  65 SW3       30.00S
PAYNESVILLE    MOSUNNY   68  53  58 SW3       30.00F
AITKIN         SUNNY     70  52  52 CALM      29.97S
PINE RIVER     CLOUDY    66  54  63 CALM      30.01S
BRAINERD       PTSUNNY   63  53  70 SW5       29.99S
STAPLES        SUNNY     66  54  63 CALM      29.98S
LONG PRAIRIE   FAIR      63  54  72 S5        30.00S
LITTLE FALLS   SUNNY     64  52  63 CALM      30.00R
LITCHFIELD     PTSUNNY   66  57  72 CALM      30.00F
BUFFALO        PTSUNNY   67  55  63 S3        30.01F
MAPLE LAKE     PTSUNNY   67  58  72 CALM      30.01F
HUTCHINSON     SUNNY     69  57  66 W5        30.00F
$$
MNZ037-044-045-052-053-301500-
   East Central Minnesota

CITY           SKY/WX    TMP DP  RH WIND       PRES   REMARKS
PRINCETON      MOSUNNY   70  59  68 CALM      30.00F
MORA           SUNNY     68  54  60 SW3       30.02S
CAMBRIDGE      MOSUNNY   70  55  60 CALM      29.99S
RUSH CITY      SUNNY     68  58  72 S3        30.01S
MOOSE LAKE     SUNNY     64  55  72 S3        29.98S
HINCKLEY       PTSUNNY   68  59  73 SW6       30.00S
CLOQUET        SUNNY     68  52  56 W10       29.98F
MCGREGOR       SUNNY     68  54  60 W3        29.99S
$$
MNZ071>073-080-081-089-090-097-098-301500-
   Southwest Minnesota

CITY           SKY/WX    TMP DP  RH WIND       PRES   REMARKS
MONTEVIDEO     CLOUDY    70  54  56 CALM      29.98F
GRANITE FALLS  CLOUDY    69  58  68 CALM      29.99S
CANBY          PTSUNNY   69  58  68 SE3       29.97S
MARSHALL       CLOUDY    68  56  65 S9        29.98R
REDWOOD FALLS  PTSUNNY   68  56  65 SE9       29.97F
OLIVIA         PTSUNNY   70  55  60 CALM      29.97F
PIPESTONE      MOSUNNY   66  55  68 S8        30.00S
WINDOM         MOSUNNY   70  55  60 CALM      30.02R
WORTHINGTON    SUNNY     65  57  75 S12       30.02S
JACKSON        MOSUNNY   66  54  63 S10       30.03S
TRACY          CLOUDY    69  57  65 S6        30.00R
SLAYTON        CLOUDY    65  56  71 SE10      30.02R
$$
MNZ065>067-074>077-082>085-091>093-301500-
   South Central Minnesota

CITY           SKY/WX    TMP DP  RH WIND       PRES   REMARKS
MANKATO        MOSUNNY   70  54  56 NE3       29.99F
NEW ULM        CLOUDY    68  55  64 SE5       29.98F
FAIRMONT       CLOUDY    66  54  63 S8        30.04R
GLENCOE        MOSUNNY   70  59  68 S3        30.00F
FARIBAULT      CLOUDY    64  61  88 S2        30.03F
OWATONNA       CLOUDY    68  55  64 S7        30.03F
WASECA         CLOUDY    64  54  68 E5        30.02F
ALBERT LEA     PTSUNNY   70  57  64 S6        30.02F
$$
MNZ078>079-086>088-094>096-301500-
   Southeast Minnesota

CITY           SKY/WX    TMP DP  RH WIND       PRES   REMARKS
ROCHESTER      MOSUNNY   70  60  70 S5        30.05S
RED WING       CLOUDY    66  61  82 CALM      30.02S
STANTON        PTSUNNY   67  59  75 CALM      30.02S
DODGE CENTER   CLOUDY    66  59  77 S7        30.04F
WINONA         MOSUNNY   63  59  88 CALM      30.04R
AUSTIN         CLOUDY    68  61  77 S5        30.04F
PRESTON        MOSUNNY   68  58  70 S3        30.07S
$$
ABBREVIATIONS USED IN REMARKS
   TC - TEMPERATURES IN CELSIUS
  WCI - WIND CHILL INDEX
   HX - HEAT INDEX
  VSB - VISIBILITY
$$




USA.gov is the U.S. government's official web portal to all federal, state and local government web resources and services.